Airfield :
LOGIN :

Register | Disclaimer

   EN    FR    IT 

 










Legend :    VFR   Marginal VFR   IFR   Intensive IFR   Very Intensive IFR
Visi :
Ceiling :
>= 8 km
>= 3000ft
5 to 8 km
1000 to 3000 ft
1500m to 5 km
500 to 1000 ft
800 to 1500m
200 to 500 ft
< 800m
< 200 ft
Symbols :   Thunderstorms  Fog  Heavy snow  Heavy precipitations  Wind > 20 kt
SIGMETs :     Misc.  Thunderstorms  Icing  Turbulence  Mountain Waves  Volcanic Ashes







- Airport Elevation : 272 ft


EGWC - DCAE Cosford

CURRENT METAR :
  • 161050Z 34011KT 4000 RA BKN012 06/05 Q1002 GRN

EXPIRED METARs :
  • 161033Z 32008G18KT 5000 SHRA BKN012 08/06 Q1002 GRN
  • 160950Z 20006KT 9999 VCSH FEW012 SCT020 08/06 Q1002 WHT
  • 160850Z 19007KT 9999 FEW016 SCT028 08/06 Q1002 BLU

TAF TAF EGWC
Valid from the 16 at 12:00 until the 16 at 18:00 UTC


161055Z 1612/1618 29010KT 9999 BKN040
PROB30
TEMPO 1612/1613 7000 RA SCT024 BKN035
No reported NOTAMs for that airfield.



MET'MAP, your aeronautical weather chart ! - Copyright ORBIFLY December 2007 - Disclaimer

ORBIFLY MET'MAP TEAM :

Programming & Development : Alexandra Zaïnal
Concept & Development : Baudouin d'Aumeries
Co-Development & Prog : Marc-Olivier Méhu
Technical & hardware support : Manuel Goepfert

Contact : metmap@orbifly.com




SOURCES & CREDITS :

   NOAA